This demonstration page uses our WeatherBlox Daily Observations layout. Learn more.

Left ArrowRight Arrow

39.92423, -83.80882

Hourly Observations for March 20, 2018

Temp ( °F °C ) Dew Point ( °F °C ) Humidity (%) Winds ( mph kmh ) Pressure ( in mb ) Visibility ( mi km ) Precip ( " mm )
12:56 am 00:56 Clear 32 undefined 17 -8.3 54 54 NE 23 37 29.71 1006 10 16 N/A
1:56 am 01:56 Clear 32 undefined 19 -7.2 59 59 NE 18 30 29.68 1005 10 16 N/A
2:56 am 02:56 Clear 33 0.6 20 -6.7 58 58 NNE 16 26 29.67 1005 10 16 N/A
3:56 am 03:56 Clear 33 0.6 21 -6.1 61 61 NE 17 28 29.64 1004 10 16 N/A
4:56 am 04:56 Mostly Clear with Light Wintry Mix 32 undefined 21 -6.1 64 64 NNE 22 35 29.63 1003 10 16 N/A
5:56 am 05:56 Partly Cloudy with Isolated Snow Showers 31 -0.6 25 -3.9 79 79 NNE 18 30 29.64 1004 8 13 0.02 0.51
6:56 am 06:56 Partly Cloudy with Isolated Snow Showers 30 -1.1 25 -3.9 82 82 NE 18 30 29.65 1004 9 14 N/A
7:56 am 07:56 Partly Cloudy with Isolated Snow Showers 30 -1.1 25 -3.9 82 82 NNE 17 28 29.65 1004 10 16 N/A
8:56 am 08:56 Partly Cloudy with Isolated Snow Showers 31 -0.6 26 -3.3 82 82 NNE 14 22 29.68 1005 9 14 N/A
9:56 am 09:56 Sunny 31 -0.6 26 -3.3 82 82 NNE 17 28 29.67 1005 10 16 N/A
10:56 am 10:56 Partly Cloudy with Isolated Snow Showers 33 0.6 27 -2.8 78 78 NNE 17 28 29.66 1005 9 14 N/A
12:13 pm 12:13 Partly Cloudy with Light Rain 34 1 30 -1 87 87 NE 9 15 29.68 1005 2 3 0.01 0.25
12:32 pm 12:32 Partly Cloudy with Light Rain 34 1 30 -1 87 87 NNE 13 20 29.68 1005 3 5 0.01 0.25
12:56 pm 12:56 Partly Cloudy with Light Wintry Mix 34 1.1 30 -1.1 85 85 NNE 12 19 29.67 1005 10 16 0.01 0.25
1:56 pm 13:56 Sunny 39 3.9 30 -1.1 70 70 NNE 12 19 29.66 1004 10 16 N/A
2:56 pm 14:56 Sunny 41 5 29 -1.7 62 62 NE 17 28 29.63 1003 10 16 N/A
3:56 pm 15:56 Sunny 43 6.1 30 -1.1 60 60 NE 13 20 29.62 1003 10 16 N/A
4:56 pm 16:56 Partly Cloudy with Light Rain 41 5 30 -1.1 65 65 ENE 17 28 29.62 1003 10 16 N/A
5:56 pm 17:56 Sunny 39 3.9 27 -2.8 62 62 ENE 16 26 29.64 1004 10 16 N/A
6:56 pm 18:56 Sunny 37 2.8 28 -2.2 70 70 ENE 18 30 29.65 1004 10 16 N/A
7:56 pm 19:56 Partly Cloudy with Isolated Snow Showers 34 1.1 30 -1.1 85 85 N 17 28 29.65 1004 4 6 N/A
8:56 pm 20:56 Mostly Clear with Light Rain 33 0.6 30 -1.1 89 89 NNE 18 30 29.65 1004 10 16 N/A
9:56 pm 21:56 Partly Cloudy with Isolated Snow Showers 31 -0.6 29 -1.7 92 92 NNE 15 24 29.68 1005 3 4 N/A
10:04 pm 22:04 Partly Cloudy with Isolated Snow Showers 30 -1 28 -2 93 93 N 12 19 29.71 1006 3 5 N/A
10:19 pm 22:19 Partly Cloudy with Isolated Snow Showers 30 -1 28 -2 93 93 N 9 15 29.71 1006 3 4 N/A
10:36 pm 22:36 Partly Cloudy with Isolated Snow Showers 30 -1 28 -2 93 93 N 12 19 29.71 1006 2 2 0.01 0.25
10:48 pm 22:48 Partly Cloudy with Isolated Snow Showers 30 -1 28 -2 93 93 N 15 24 29.71 1006 1 2 0.01 0.25
10:56 pm 22:56 Partly Cloudy with Isolated Snow Showers 30 -1.1 28 -2.2 92 92 N 13 20 29.68 1005 1 2 0.01 0.25
11:09 pm 23:09 Partly Cloudy with Isolated Snow Showers 30 -1 28 -2 93 93 N 16 26 29.71 1006 1 2 N/A
11:47 pm 23:47 Partly Cloudy with Isolated Snow Showers 28 -2 28 -2 100 100 N 15 24 29.71 1006 3 4 N/A
11:56 pm 23:56 Partly Cloudy with Isolated Snow Showers 29 -1.7 28 -2.2 96 96 N 13 20 29.68 1005 1 2 N/A

Powered by AerisWeather